Location: Feydey
(46.3431°N, 7.0106°E)
Time: 05:35:05
(UTC+00:00)

ERS-2 - Pass Details

Date: 20 June 2021
Orbit: 492 x 495 km, 98.5° (Epoch: 28 July)

Event Time Altitude Azimuth Distance (km) Brightness Sun altitude
Rises 19:59:44 0° 8° (N) 2,593 6.3 -5.1°
Reaches altitude 10° 20:01:52 10° 2° (N) 1,705 5.5 -5.4°
Maximum altitude 20:05:22 45° 289° (WNW) 692 3.4 -5.8°
Drops below altitude 10° 20:08:51 10° 217° (SW) 1,693 4.7 -6.3°
Sets 20:10:58 0° 211° (SSW) 2,570 5.6 -6.5°
